{"data":{"norad_id":66525,"intl_designator":"2025-265K","name":"STARLINK-35975","alt_names":[],"object_type":"PAYLOAD","status":"ACTIVE","operator":null,"country":"US","launch_date":"2025-11-19","launch_site_code":"AFETR","launch_vehicle":null,"mission":null,"orbit_class":"UNKNOWN","rcs_meters":null,"size_class":null,"mass_kg":null,"dimensions":null,"purposes":["comms"],"wikipedia_slug":null,"has_3d_model":false,"image_url":null,"decayed_at":null,"tle_current":{"epoch":"2026-09-20T08:14:10.970592Z","epoch_age_seconds":102829,"freshness":"FRESH","line1":"1 66525U 25265K   26263.34318253  .00009630  00000+0  35890-3 0  9997","line2":"2 66525  42.9995 258.5975 0001354 273.5423  86.5274 15.27589253 46889","mean_motion":15.27589253,"eccentricity":0.0001354,"inclination_deg":42.9995,"raan_deg":258.5975,"arg_perigee_deg":273.5423,"mean_anomaly_deg":86.5274,"bstar":0.0003589,"rev_number":4688,"period_min":94.266177715771,"perigee_km":482.09238852284,"apogee_km":483.95039021468,"semimajor_km":6861.1583893688,"source":"CELESTRAK","updated_at":"2026-09-21T09:00:35.965116Z"}}}